SCP
0 0 0 0 0 0 0 0 0 0 0 0 0 0 0 0 0 0 0 0 0 0
0 0 0 0 0 0 0 0 0 0 0 0 0 0 0 0 0 0 0 0 0 0
0 0 0 0 0 0 0 0 0 0 0 0 0 0 0 0 0 0 0 0 0 0
0 0 0 0 0 0 0 0 0 0 0 0 0 0 0 0 0 0 0 0 0 0
0 0 0 0 0 0 0 0 0 0 0 0 0 0 0 0 0 0 0 0 0 0
0 0 0 0 0 0 0 0 0 0 0 0 0 0 0 0 0 0 0 0 0 0
0 0 0 0 0 0 0 0 0 0 0 0 0 0 0 0 0 0 0 0 0 0
0 0 0 0 0 0 0 0 0 0 0 0 0 0 0 0 0 0 0 0 0 0
0 0 0 0 0 0 0 0 0 0 0 0 0 0 0 0 0 0 0 0 0 0
0 0 0 0 0 0 0 0 0 0 0 0 0 -0 -0 -0 0 0 0 0 0 0
0 0 0 0 0 0 0 0 0 -0 -0 0 0 -0 0 0 0 0 0 0 0 0
0 0 0 0 0 0 0 0 -0 -0 0 0 0 0 0 0 0 0 0 0 0 0
0 0 0 0 0 0 0 0 -0 -0 0 0 0 -0 -0 0 0 0 0 0 0 0
0 0 0 0 0 0 0 0 0 0 -0 -0 0 -0 -0 -0 0 0 0 0 0 0
Wind_Speed_500mb
35 37 40 41 44 44 46 49 52 54 54 48 46 40 35 38 40 40 41 43 45 49
37 38 39 41 42 40 44 48 51 52 50 44 41 37 37 39 40 41 44 46 48 50
39 40 40 39 37 38 41 46 48 47 44 40 39 38 36 39 42 43 46 48 51 53
41 41 39 37 35 36 39 43 44 45 41 40 38 38 39 42 43 45 48 51 55 60
43 41 38 37 36 35 38 40 42 40 38 36 36 37 39 40 38 40 43 43 46 50
46 42 39 38 37 35 37 38 38 33 33 33 35 36 34 35 34 34 41 43 46 52
50 43 40 39 37 34 36 36 36 31 29 31 34 33 31 27 32 41 42 46 49 46
53 46 42 40 36 34 34 33 32 28 25 28 31 29 32 26 35 37 36 34 37 40
56 49 42 38 36 35 33 31 29 26 25 25 28 27 29 29 36 33 36 42 42 41
55 48 42 37 37 35 33 30 27 21 20 19 24 29 32 34 39 40 41 45 46 49
54 48 42 38 36 34 31 28 23 16 13 19 32 35 34 37 39 36 37 41 45 48
53 48 43 38 34 30 28 25 19 16 17 23 31 31 33 36 35 33 34 36 37 40
51 48 44 37 33 29 28 25 20 20 20 25 25 26 29 31 33 33 32 30 31 34
49 48 44 37 35 32 30 29 23 21 21 24 20 19 25 29 32 33 34 36 37 39
Wind_Direction_500mb
270 274 279 287 294 299 304 311 315 314 311 307 305 304 304 299 297 295 290 285 284 284
270 275 281 287 291 298 308 313 315 315 310 305 304 298 298 295 296 293 290 287 286 285
273 275 279 284 292 301 308 313 316 315 309 304 299 298 295 292 290 287 286 285 285 283
272 273 278 286 291 297 307 314 317 316 317 314 310 306 298 295 294 293 290 285 284 282
269 272 280 284 287 294 309 315 317 318 318 317 318 314 309 306 303 301 303 303 299 296
267 271 278 280 284 293 308 313 318 318 321 323 322 319 313 309 312 310 307 306 305 301
264 267 272 275 277 286 302 310 318 316 320 323 325 322 323 325 321 316 309 300 298 302
255 259 266 271 273 280 295 306 314 310 315 324 326 329 331 327 322 317 318 324 325 323
245 254 262 269 271 275 288 295 304 306 314 322 325 332 333 331 325 325 327 325 323 321
240 250 258 264 268 272 280 289 294 310 314 322 330 327 325 328 325 323 324 326 329 327
238 246 251 258 263 267 275 284 277 295 301 326 334 329 325 330 328 332 328 332 333 331
238 241 246 253 260 262 267 271 269 267 281 314 331 330 338 337 332 337 339 337 336 337
237 237 242 248 252 252 257 257 258 258 280 307 328 342 341 339 335 345 346 350 351 351
234 236 240 242 244 244 250 252 245 255 275 299 317 337 332 332 337 344 353 355 359 5
Wind_Speed_850mb
35 37 40 41 44 44 46 49 52 54 54 48 46 40 35 38 40 40 41 43 45 49
37 38 39 41 42 40 44 48 51 52 50 44 41 37 37 39 40 41 44 46 48 50
39 40 40 39 37 38 41 46 48 47 44 40 39 38 36 39 42 43 46 48 51 53
41 41 39 37 35 36 39 43 44 45 41 40 38 38 39 42 43 45 48 51 55 60
43 41 38 37 36 35 38 40 42 40 38 36 36 37 39 40 38 40 43 43 46 50
46 42 39 38 37 35 37 38 38 33 33 33 35 36 34 35 34 34 41 43 46 52
50 43 40 39 37 34 36 36 36 31 29 31 34 33 31 27 32 41 42 46 49 46
53 46 42 40 36 34 34 33 32 28 25 28 31 29 32 26 35 37 36 34 37 40
56 49 42 38 36 35 33 31 29 26 25 25 28 27 29 29 36 33 36 42 42 41
55 48 42 37 37 35 33 30 27 21 20 19 24 29 32 34 39 40 41 45 46 49
54 48 42 38 36 34 31 28 23 16 13 19 32 35 34 37 39 36 37 41 45 48
53 48 43 38 34 30 28 25 19 16 17 23 31 31 33 36 35 33 34 36 37 40
51 48 44 37 33 29 28 25 20 20 20 25 25 26 29 31 33 33 32 30 31 34
49 48 44 37 35 32 30 29 23 21 21 24 20 19 25 29 32 33 34 36 37 39
Wind_Direction_850mb
270 274 279 287 294 299 304 311 315 314 311 307 305 304 304 299 297 295 290 285 284 284
270 275 281 287 291 298 308 313 315 315 310 305 304 298 298 295 296 293 290 287 286 285
273 275 279 284 292 301 308 313 316 315 309 304 299 298 295 292 290 287 286 285 285 283
272 273 278 286 291 297 307 314 317 316 317 314 310 306 298 295 294 293 290 285 284 282
269 272 280 284 287 294 309 315 317 318 318 317 318 314 309 306 303 301 303 303 299 296
267 271 278 280 284 293 308 313 318 318 321 323 322 319 313 309 312 310 307 306 305 301
264 267 272 275 277 286 302 310 318 316 320 323 325 322 323 325 321 316 309 300 298 302
255 259 266 271 273 280 295 306 314 310 315 324 326 329 331 327 322 317 318 324 325 323
245 254 262 269 271 275 288 295 304 306 314 322 325 332 333 331 325 325 327 325 323 321
240 250 258 264 268 272 280 289 294 310 314 322 330 327 325 328 325 323 324 326 329 327
238 246 251 258 263 267 275 284 277 295 301 326 334 329 325 330 328 332 328 332 333 331
238 241 246 253 260 262 267 271 269 267 281 314 331 330 338 337 332 337 339 337 336 337
237 237 242 248 252 252 257 257 258 258 280 307 328 342 341 339 335 345 346 350 351 351
234 236 240 242 244 244 250 252 245 255 275 299 317 337 332 332 337 344 353 355 359 5